Tracking 22438 objects as of 25-Feb-2021
HD Live streaming from Space Station
objects crossing your sky now

DELTA 1 DEB

Track DELTA 1 DEB now!
10-day predictions


NORAD ID: 21933
Int'l Code: 1975-052JT
Perigee: 1,057.3 km
Apogee: 1,307.3 km
Inclination: 99.3 °
Period: 108.9 minutes
Semi major axis: 7553 km
RCS: 0.0315 m2 (small)
Launch date: June 12, 1975
Source: United States (US)
Launch site: AIR FORCE WESTERN TEST RANGE (AFWTR)

Note: This is SATELLITE DEBRIS
aabbcc
Your satellite tracking list
Your tracking list is empty




NASA's NSSDC Master Catalog

Two Line Element Set (TLE):
1 21933U 75052JT  21053.60532587 -.00000027  00000-0  26133-4 0  9993
2 21933  99.3216 295.5950 0165478 279.8950 107.6313 13.22498248415718
Source of the keplerian elements: AFSPC